Time,TemperatureF,DewpointF,PressureIn,WindDirection,WindDirectionDegrees,WindSpeedMPH,WindSpeedGustMPH,Humidity,HourlyPrecipIn,Conditions,Clouds,dailyrainin,SoftwareType,DateUTC
2013-05-26 00:02:00,56.0,50.0,30.06,SSW,210,4.0,10.0,81,0.00,,,0.01,,2013-05-26 05:02:00,
2013-05-26 00:12:00,56.0,50.0,30.06,SSW,210,4.0,10.0,81,0.00,,,0.01,,2013-05-26 05:12:00,
2013-05-26 00:22:00,56.0,51.0,30.06,South,188,4.0,9.0,82,0.00,,,0.00,,2013-05-26 05:22:00,
2013-05-26 00:32:00,56.0,51.0,30.06,SSE,148,3.0,9.0,82,0.00,,,0.00,,2013-05-26 05:32:00,
2013-05-26 00:42:00,56.0,51.0,30.06,SSE,148,3.0,9.0,82,0.00,,,0.00,,2013-05-26 05:42:00,
2013-05-26 00:52:00,55.0,50.0,30.06,SE,135,0.0,4.0,84,0.00,,,0.00,,2013-05-26 05:52:00,
2013-05-26 01:01:00,55.0,51.0,30.06,SE,138,1.0,3.0,85,0.00,,,0.00,,2013-05-26 06:01:00,
2013-05-26 01:12:00,55.0,51.0,30.06,SE,138,1.0,3.0,85,0.00,,,0.00,,2013-05-26 06:12:00,
2013-05-26 01:22:00,56.0,51.0,30.06,SE,128,2.0,5.0,83,0.00,,,0.00,,2013-05-26 06:22:00,
2013-05-26 01:32:00,57.0,50.0,30.06,SE,129,6.0,12.0,78,0.00,,,0.00,,2013-05-26 06:32:00,
2013-05-26 01:42:00,57.0,50.0,30.06,SE,129,6.0,12.0,78,0.00,,,0.00,,2013-05-26 06:42:00,
2013-05-26 01:52:00,57.0,50.0,30.06,SE,139,5.0,16.0,77,0.00,,,0.00,,2013-05-26 06:52:00,
2013-05-26 02:01:00,57.0,50.0,30.06,SE,137,6.0,15.0,77,0.00,,,0.00,,2013-05-26 07:01:00,
2013-05-26 02:11:00,57.0,50.0,30.06,SE,137,6.0,15.0,77,0.00,,,0.00,,2013-05-26 07:11:00,
2013-05-26 02:21:00,57.0,50.0,30.06,SE,146,4.0,14.0,77,0.00,,,0.00,,2013-05-26 07:21:00,
2013-05-26 02:31:00,57.0,51.0,30.06,SSW,200,4.0,11.0,79,0.00,,,0.00,,2013-05-26 07:31:00,
2013-05-26 02:42:00,57.0,51.0,30.06,SSW,200,4.0,11.0,79,0.00,,,0.00,,2013-05-26 07:42:00,
2013-05-26 02:52:00,57.0,51.0,30.05,SE,136,4.0,7.0,79,0.00,,,0.00,,2013-05-26 07:52:00,
2013-05-26 03:01:00,57.0,50.0,30.04,SE,131,4.0,10.0,78,0.00,,,0.00,,2013-05-26 08:01:00,
2013-05-26 03:12:00,57.0,50.0,30.04,SE,131,4.0,10.0,78,0.00,,,0.00,,2013-05-26 08:12:00,
2013-05-26 03:21:00,56.0,50.0,30.03,SE,127,4.0,7.0,79,0.00,,,0.00,,2013-05-26 08:21:00,
2013-05-26 03:32:00,56.0,50.0,30.03,SE,135,3.0,7.0,79,0.00,,,0.00,,2013-05-26 08:32:00,
2013-05-26 03:42:00,56.0,50.0,30.03,SE,135,3.0,7.0,79,0.00,,,0.00,,2013-05-26 08:42:00,
2013-05-26 03:53:00,56.0,50.0,30.03,ESE,105,3.0,6.0,79,0.00,,,0.00,,2013-05-26 08:53:00,
2013-05-26 04:01:00,56.0,50.0,30.03,SE,126,3.0,5.0,80,0.00,,,0.00,,2013-05-26 09:01:00,
2013-05-26 04:11:00,56.0,49.0,30.03,ESE,118,5.0,8.0,78,0.00,,,0.00,,2013-05-26 09:11:00,
2013-05-26 04:21:00,56.0,49.0,30.03,ESE,118,5.0,8.0,78,0.00,,,0.00,,2013-05-26 09:21:00,
2013-05-26 04:33:00,56.0,49.0,30.03,ESE,106,5.0,8.0,77,0.00,,,0.00,,2013-05-26 09:33:00,
2013-05-26 04:42:00,56.0,49.0,30.03,ESE,106,5.0,8.0,77,0.00,,,0.00,,2013-05-26 09:42:00,
2013-05-26 04:52:00,56.0,49.0,30.04,SSE,158,7.0,12.0,76,0.00,,,0.00,,2013-05-26 09:52:00,
2013-05-26 05:02:00,56.0,48.0,30.03,SE,134,6.0,12.0,75,0.00,,,0.00,,2013-05-26 10:02:00,
2013-05-26 05:12:00,56.0,48.0,30.03,SE,134,6.0,12.0,75,0.00,,,0.00,,2013-05-26 10:12:00,
2013-05-26 05:23:00,56.0,49.0,30.01,ESE,110,4.0,9.0,77,0.00,,,0.00,,2013-05-26 10:23:00,
2013-05-26 05:33:00,56.0,49.0,30.02,SE,137,7.0,10.0,76,0.00,,,0.00,,2013-05-26 10:33:00,
2013-05-26 05:42:00,56.0,49.0,30.02,SE,137,7.0,10.0,76,0.00,,,0.00,,2013-05-26 10:42:00,
2013-05-26 05:52:00,56.0,49.0,30.04,SSE,158,6.0,12.0,76,0.00,,,0.00,,2013-05-26 10:52:00,
2013-05-26 06:03:00,56.0,49.0,30.04,ESE,113,6.0,10.0,76,0.00,,,0.00,,2013-05-26 11:03:00,
2013-05-26 06:11:00,56.0,49.0,30.04,ESE,113,6.0,10.0,76,0.00,,,0.00,,2013-05-26 11:11:00,
2013-05-26 06:22:00,56.0,48.0,30.03,ESE,121,7.0,14.0,75,0.00,,,0.00,,2013-05-26 11:22:00,
2013-05-26 06:32:00,56.0,48.0,30.03,SSE,162,6.0,11.0,75,0.00,,,0.00,,2013-05-26 11:32:00,
2013-05-26 06:42:00,56.0,48.0,30.03,SSE,162,6.0,11.0,75,0.00,,,0.00,,2013-05-26 11:42:00,
2013-05-26 06:52:00,56.0,49.0,30.03,SE,141,4.0,9.0,76,0.00,,,0.00,,2013-05-26 11:52:00,
2013-05-26 07:02:00,55.0,48.0,30.04,East,84,5.0,8.0,77,0.00,,,0.00,,2013-05-26 12:02:00,
2013-05-26 07:12:00,55.0,48.0,30.04,East,84,5.0,8.0,77,0.00,,,0.00,,2013-05-26 12:12:00,
2013-05-26 07:21:00,55.0,48.0,30.05,SE,126,3.0,6.0,77,0.00,,,0.00,,2013-05-26 12:21:00,
2013-05-26 07:32:00,55.0,48.0,30.05,ESE,111,3.0,4.0,78,0.00,,,0.00,,2013-05-26 12:32:00,
2013-05-26 07:42:00,55.0,48.0,30.05,ESE,111,3.0,4.0,78,0.00,,,0.00,,2013-05-26 12:42:00,
2013-05-26 07:52:00,55.0,48.0,30.05,ESE,118,4.0,6.0,78,0.00,,,0.00,,2013-05-26 12:52:00,
2013-05-26 08:02:00,55.0,49.0,30.04,ESE,115,4.0,7.0,79,0.00,,,0.00,,2013-05-26 13:02:00,
2013-05-26 08:11:00,55.0,49.0,30.04,ESE,115,4.0,7.0,79,0.00,,,0.00,,2013-05-26 13:11:00,
2013-05-26 08:21:00,55.0,48.0,30.05,East,87,5.0,7.0,78,0.00,,,0.00,,2013-05-26 13:21:00,
2013-05-26 08:32:00,55.0,48.0,30.05,SSE,148,4.0,7.0,77,0.00,,,0.00,,2013-05-26 13:32:00,
2013-05-26 08:42:00,55.0,48.0,30.05,SSE,148,4.0,7.0,77,0.00,,,0.00,,2013-05-26 13:42:00,
2013-05-26 08:52:00,56.0,48.0,30.05,ESE,117,6.0,8.0,75,0.00,,,0.00,,2013-05-26 13:52:00,
2013-05-26 09:02:00,56.0,49.0,30.04,SE,126,7.0,9.0,76,0.00,,,0.00,,2013-05-26 14:02:00,
2013-05-26 09:11:00,56.0,49.0,30.04,SE,126,7.0,9.0,76,0.00,,,0.00,,2013-05-26 14:11:00,
2013-05-26 09:21:00,57.0,49.0,30.03,ESE,122,7.0,9.0,74,0.00,,,0.00,,2013-05-26 14:21:00,
2013-05-26 09:32:00,57.0,49.0,30.02,SE,145,6.0,13.0,74,0.00,,,0.00,,2013-05-26 14:32:00,
2013-05-26 09:42:00,57.0,49.0,30.02,SE,145,6.0,13.0,74,0.00,,,0.00,,2013-05-26 14:42:00,
2013-05-26 09:52:00,58.0,50.0,30.02,ESE,122,6.0,9.0,74,0.00,,,0.00,,2013-05-26 14:52:00,
2013-05-26 10:01:00,58.0,49.0,30.03,SE,134,7.0,12.0,72,0.00,,,0.00,,2013-05-26 15:01:00,
2013-05-26 10:12:00,58.0,49.0,30.03,SE,134,7.0,12.0,72,0.00,,,0.00,,2013-05-26 15:12:00,
2013-05-26 10:22:00,58.0,49.0,30.03,ESE,123,6.0,12.0,73,0.00,,,0.00,,2013-05-26 15:22:00,
2013-05-26 10:33:00,59.0,50.0,30.02,ESE,107,7.0,12.0,71,0.00,,,0.00,,2013-05-26 15:33:00,
2013-05-26 10:43:00,59.0,50.0,30.02,ESE,107,7.0,12.0,71,0.00,,,0.00,,2013-05-26 15:43:00,
2013-05-26 10:53:00,60.0,51.0,30.01,ESE,119,7.0,13.0,71,0.00,,,0.00,,2013-05-26 15:53:00,
2013-05-26 11:03:00,59.0,49.0,30.01,ESE,118,8.0,13.0,70,0.00,,,0.00,,2013-05-26 16:03:00,
2013-05-26 11:12:00,59.0,49.0,30.01,ESE,118,8.0,13.0,70,0.00,,,0.00,,2013-05-26 16:12:00,
2013-05-26 11:23:00,60.0,51.0,30.01,SE,132,5.0,11.0,71,0.00,,,0.00,,2013-05-26 16:23:00,
2013-05-26 11:33:00,60.0,50.0,30.00,SE,126,8.0,12.0,69,0.00,,,0.00,,2013-05-26 16:33:00,
2013-05-26 11:42:00,60.0,50.0,30.00,SE,126,8.0,12.0,69,0.00,,,0.00,,2013-05-26 16:42:00,
2013-05-26 11:53:00,60.0,50.0,30.01,SE,131,7.0,11.0,69,0.00,,,0.00,,2013-05-26 16:53:00,
2013-05-26 12:02:00,60.0,50.0,30.01,SE,126,7.0,13.0,70,0.00,,,0.00,,2013-05-26 17:02:00,
2013-05-26 12:11:00,60.0,50.0,30.01,SE,126,7.0,13.0,70,0.00,,,0.00,,2013-05-26 17:11:00,
2013-05-26 12:22:00,61.0,50.0,30.01,SE,136,6.0,11.0,67,0.00,,,0.00,,2013-05-26 17:22:00,
2013-05-26 12:32:00,61.0,50.0,30.01,SE,140,7.0,12.0,67,0.00,,,0.00,,2013-05-26 17:32:00,
2013-05-26 12:42:00,61.0,50.0,30.01,SE,140,7.0,12.0,67,0.00,,,0.00,,2013-05-26 17:42:00,
2013-05-26 12:52:00,62.0,50.0,30.00,SE,130,7.0,13.0,65,0.00,,,0.00,,2013-05-26 17:52:00,
2013-05-26 13:01:00,62.0,50.0,30.00,SE,145,7.0,15.0,64,0.00,,,0.00,,2013-05-26 18:01:00,
2013-05-26 13:12:00,62.0,50.0,30.00,SE,145,7.0,15.0,64,0.00,,,0.00,,2013-05-26 18:12:00,
2013-05-26 13:21:00,61.0,50.0,30.00,SE,144,6.0,11.0,66,0.00,,,0.00,,2013-05-26 18:21:00,
2013-05-26 13:32:00,62.0,50.0,30.00,SSE,153,7.0,14.0,64,0.00,,,0.00,,2013-05-26 18:32:00,
2013-05-26 13:42:00,62.0,50.0,30.00,SSE,153,7.0,14.0,64,0.00,,,0.00,,2013-05-26 18:42:00,
2013-05-26 13:52:00,62.0,50.0,30.00,SE,131,7.0,14.0,64,0.00,,,0.00,,2013-05-26 18:52:00,
2013-05-26 14:01:00,61.0,49.0,30.00,SE,136,6.0,13.0,65,0.00,,,0.00,,2013-05-26 19:01:00,
2013-05-26 14:11:00,61.0,49.0,30.00,SE,136,6.0,13.0,65,0.00,,,0.00,,2013-05-26 19:11:00,
2013-05-26 14:22:00,61.0,49.0,30.00,SE,140,9.0,14.0,64,0.00,,,0.00,,2013-05-26 19:22:00,
2013-05-26 14:32:00,60.0,49.0,30.00,SE,126,6.0,12.0,66,0.00,,,0.00,,2013-05-26 19:32:00,
2013-05-26 14:42:00,60.0,49.0,30.00,SE,126,6.0,12.0,66,0.00,,,0.00,,2013-05-26 19:42:00,
2013-05-26 14:52:00,61.0,50.0,30.00,SE,136,6.0,12.0,66,0.00,,,0.00,,2013-05-26 19:52:00,
2013-05-26 15:02:00,62.0,50.0,30.00,SE,142,3.0,10.0,64,0.00,,,0.00,,2013-05-26 20:02:00,
2013-05-26 15:11:00,62.0,50.0,30.00,SE,142,3.0,10.0,64,0.00,,,0.00,,2013-05-26 20:11:00,
2013-05-26 15:22:00,61.0,49.0,30.00,SE,143,9.0,17.0,64,0.00,,,0.00,,2013-05-26 20:22:00,
2013-05-26 15:32:00,61.0,49.0,30.00,South,170,8.0,15.0,64,0.00,,,0.00,,2013-05-26 20:32:00,
2013-05-26 15:42:00,61.0,49.0,30.00,South,170,8.0,15.0,64,0.00,,,0.00,,2013-05-26 20:42:00,
2013-05-26 15:52:00,61.0,49.0,30.00,South,179,10.0,16.0,64,0.00,,,0.00,,2013-05-26 20:52:00,
2013-05-26 16:02:00,61.0,49.0,30.00,SSE,165,8.0,15.0,64,0.00,,,0.00,,2013-05-26 21:02:00,
2013-05-26 16:11:00,61.0,49.0,30.00,SSE,165,8.0,15.0,64,0.00,,,0.00,,2013-05-26 21:11:00,
2013-05-26 16:22:00,61.0,50.0,30.00,South,181,5.0,13.0,66,0.00,,,0.00,,2013-05-26 21:22:00,
2013-05-26 16:33:00,61.0,50.0,30.00,SSW,194,6.0,11.0,66,0.00,,,0.00,,2013-05-26 21:33:00,
2013-05-26 16:43:00,61.0,50.0,30.00,SSW,194,6.0,11.0,66,0.00,,,0.00,,2013-05-26 21:43:00,
2013-05-26 16:53:00,60.0,49.0,30.00,SSE,151,8.0,12.0,66,0.00,,,0.00,,2013-05-26 21:53:00,
2013-05-26 17:03:00,60.0,49.0,29.99,South,173,4.0,12.0,67,0.00,,,0.00,,2013-05-26 22:03:00,
2013-05-26 17:12:00,60.0,49.0,29.99,South,173,4.0,12.0,67,0.00,,,0.00,,2013-05-26 22:12:00,
2013-05-26 17:23:00,60.0,50.0,29.99,SSE,158,5.0,11.0,69,0.00,,,0.00,,2013-05-26 22:23:00,
2013-05-26 17:33:00,60.0,49.0,29.98,SSE,155,3.0,10.0,68,0.00,,,0.00,,2013-05-26 22:33:00,
2013-05-26 17:42:00,60.0,49.0,29.98,South,170,5.0,10.0,68,0.00,,,0.00,,2013-05-26 22:42:00,
2013-05-26 17:53:00,60.0,49.0,29.98,South,170,5.0,10.0,68,0.00,,,0.00,,2013-05-26 22:53:00,
2013-05-26 18:02:00,60.0,50.0,29.98,SSE,163,5.0,9.0,69,0.00,,,0.00,,2013-05-26 23:02:00,
2013-05-26 18:12:00,60.0,50.0,29.98,SSE,163,5.0,9.0,69,0.00,,,0.00,,2013-05-26 23:12:00,
2013-05-26 18:22:00,60.0,50.0,29.98,SSW,200,4.0,7.0,70,0.00,,,0.00,,2013-05-26 23:22:00,
2013-05-26 18:32:00,60.0,50.0,29.98,SE,132,1.0,9.0,69,0.00,,,0.00,,2013-05-26 23:32:00,
2013-05-26 18:43:00,60.0,50.0,29.98,SE,132,1.0,9.0,69,0.00,,,0.00,,2013-05-26 23:43:00,
2013-05-26 18:52:00,60.0,49.0,29.98,SE,126,5.0,13.0,68,0.00,,,0.00,,2013-05-26 23:52:00,
2013-05-26 19:02:00,59.0,49.0,29.97,SE,125,5.0,9.0,70,0.00,,,0.00,,2013-05-27 00:02:00,
2013-05-26 19:11:00,59.0,49.0,29.97,SE,125,5.0,9.0,70,0.00,,,0.00,,2013-05-27 00:11:00,
2013-05-26 19:21:00,58.0,50.0,29.97,SE,127,2.0,6.0,74,0.00,,,0.00,,2013-05-27 00:21:00,
2013-05-26 19:32:00,58.0,50.0,29.97,SE,136,2.0,4.0,75,0.00,,,0.00,,2013-05-27 00:32:00,
2013-05-26 19:42:00,58.0,50.0,29.97,SE,136,2.0,4.0,75,0.00,,,0.00,,2013-05-27 00:42:00,
2013-05-26 19:52:00,58.0,50.0,29.97,SE,135,0.0,4.0,76,0.00,,,0.00,,2013-05-27 00:52:00,
2013-05-26 20:01:00,58.0,50.0,29.97,ESE,120,1.0,2.0,75,0.00,,,0.00,,2013-05-27 01:01:00,
2013-05-26 20:11:00,58.0,50.0,29.97,ESE,120,1.0,2.0,75,0.00,,,0.00,,2013-05-27 01:11:00,
2013-05-26 20:22:00,58.0,50.0,29.97,ESE,123,0.0,1.0,76,0.00,,,0.00,,2013-05-27 01:22:00,
2013-05-26 20:31:00,58.0,50.0,29.97,SE,126,0.0,1.0,76,0.00,,,0.00,,2013-05-27 01:31:00,
2013-05-26 20:42:00,58.0,51.0,29.98,ESE,122,0.0,2.0,77,0.00,,,0.00,,2013-05-27 01:42:00,
2013-05-26 20:52:00,58.0,51.0,29.98,ESE,122,0.0,2.0,77,0.00,,,0.00,,2013-05-27 01:52:00,
2013-05-26 21:01:00,58.0,50.0,29.98,SE,126,0.0,1.0,76,0.00,,,0.00,,2013-05-27 02:01:00,
2013-05-26 21:11:00,58.0,50.0,29.98,SE,126,0.0,1.0,76,0.00,,,0.00,,2013-05-27 02:11:00,
2013-05-26 21:22:00,58.0,50.0,29.98,SSE,151,0.0,3.0,75,0.00,,,0.00,,2013-05-27 02:22:00,
2013-05-26 21:32:00,58.0,49.0,29.98,SE,126,1.0,4.0,73,0.00,,,0.00,,2013-05-27 02:32:00,
2013-05-26 21:42:00,58.0,49.0,29.98,SE,126,1.0,4.0,73,0.00,,,0.00,,2013-05-27 02:42:00,
2013-05-26 21:52:00,59.0,49.0,29.98,SW,217,3.0,5.0,69,0.00,,,0.00,,2013-05-27 02:52:00,
2013-05-26 22:02:00,59.0,46.0,29.98,SSE,162,6.0,13.0,63,0.00,,,0.00,,2013-05-27 03:02:00,
2013-05-26 22:11:00,59.0,46.0,29.98,SSE,162,6.0,13.0,63,0.00,,,0.00,,2013-05-27 03:11:00,
2013-05-26 22:21:00,59.0,46.0,29.98,SE,131,5.0,9.0,61,0.00,,,0.00,,2013-05-27 03:21:00,
2013-05-26 22:33:00,58.0,45.0,29.97,SE,125,4.0,8.0,62,0.00,,,0.00,,2013-05-27 03:33:00,
2013-05-26 22:43:00,58.0,45.0,29.97,SE,125,4.0,8.0,62,0.00,,,0.00,,2013-05-27 03:43:00,
2013-05-26 22:53:00,58.0,46.0,29.97,ESE,117,4.0,7.0,64,0.00,,,0.00,,2013-05-27 03:53:00,
2013-05-26 23:02:00,57.0,45.0,29.96,SE,136,3.0,7.0,65,0.00,,,0.00,,2013-05-27 04:02:00,
2013-05-26 23:12:00,57.0,45.0,29.96,SE,136,3.0,7.0,65,0.00,,,0.00,,2013-05-27 04:12:00,
2013-05-26 23:23:00,57.0,45.0,29.96,ESE,118,3.0,6.0,65,0.00,,,0.00,,2013-05-27 04:23:00,
2013-05-26 23:33:00,56.0,45.0,29.96,SE,126,3.0,5.0,66,0.00,,,0.00,,2013-05-27 04:33:00,
2013-05-26 23:43:00,56.0,45.0,29.95,ESE,115,3.0,4.0,67,0.00,,,0.00,,2013-05-27 04:43:00,
2013-05-26 23:52:00,56.0,45.0,29.95,ESE,115,3.0,4.0,67,0.00,,,0.00,,2013-05-27 04:52:00,